Tracking 26303 objects as of 1-Dec-2022
HD Live streaming from Space Station
objects crossing your sky now

COSMOS 1408 DEB

Track COSMOS 1408 DEB now!
10-day predictions


NORAD ID: 51435
Int'l Code: 1982-092BKG
Perigee: 466.0 km
Apogee: 579.3 km
Inclination: 82.6 °
Period: 94.9 minutes
Semi major axis: 6893 km
RCS: Unknown
Launch date: September 16, 1982
Source: Commonwealth of Independent States (former USSR) (CIS)
Launch site: PLESETSK MISSILE AND SPACE COMPLEX (PKMTR)

Note: This is SATELLITE DEBRIS
aabbcc
Your satellite tracking list
Your tracking list is empty




NASA's NSSDC Master Catalog

Two Line Element Set (TLE):
1 51435U 82092BKH 22334.81148408  .00008248  00000-0  38296-3 0  9990
2 51435  82.5624 111.5654 0082229 171.8633 188.3958 15.16804870 47993
Source of the keplerian elements: AFSPC